| time (UTC) | temp F | wind direction | speed knots | gust knots | rain 1hr in | rain 24hr in | rain mn in | humidity % | barometer mb |
| 20260902003058 | 58 | 58 | 0.0 | 0.0 | 0.00 | 0.07 | 0.07 | 95 | 1017.6 |
| 20260902002536 | 58 | 58 | 0.0 | 0.9 | 0.00 | 0.07 | 0.07 | 94 | 1017.4 |
| 20260902002005 | 58 | 58 | 0.0 | 0.9 | 0.00 | 0.07 | 0.07 | 94 | 1017.5 |
| 20260902001440 | 58 | 58 | 0.0 | 0.0 | 0.00 | 0.07 | 0.07 | 93 | 1017.5 |
| 20260902001211 | 58 | 58 | 0.0 | 0.0 | 0.00 | 0.07 | 0.07 | 93 | 1017.4 |
| 20260902000414 | 59 | 58 | 0.0 | 0.0 | 0.00 | 0.07 | 0.07 | 93 | 1017.3 |
| 20260901235905 | 59 | 58 | 0.0 | 0.0 | 0.00 | 0.07 | 0.07 | 93 | 1017.4 |
| 20260901235402 | 59 | 58 | 0.0 | 0.0 | 0.00 | 0.07 | 0.07 | 93 | 1017.3 |
| 20260901234856 | 60 | 58 | 0.0 | 0.0 | 0.00 | 0.07 | 0.07 | 93 | 1017.2 |
| 20260901234352 | 60 | 58 | 0.0 | 0.0 | 0.00 | 0.07 | 0.07 | 94 | 1017.3 |
| 20260901233827 | 60 | 58 | 0.0 | 0.0 | 0.00 | 0.07 | 0.07 | 93 | 1017.1 |
| 20260901233302 | 60 | 58 | 0.0 | 0.0 | 0.00 | 0.07 | 0.07 | 92 | 1016.9 |
| 20260901233028 | 60 | 58 | 0.0 | 0.0 | 0.00 | 0.07 | 0.07 | 91 | 1016.9 |
| 20260901232526 | 61 | 95 | 0.0 | 0.0 | 0.00 | 0.07 | 0.07 | 91 | 1016.7 |
| 20260901231732 | 61 | 95 | 0.0 | 0.0 | 0.00 | 0.07 | 0.07 | 90 | 1016.7 |
| 20260901231203 | 61 | 95 | 0.0 | 0.0 | 0.00 | 0.07 | 0.07 | 90 | 1016.7 |
| 20260901230929 | 62 | 95 | 0.0 | 0.0 | 0.00 | 0.07 | 0.07 | 90 | 1016.7 |
| 20260901230156 | 62 | 95 | 0.0 | 0.0 | 0.00 | 0.07 | 0.07 | 90 | 1016.6 |
| 20260901225653 | 62 | 95 | 0.0 | 0.0 | 0.00 | 0.07 | 0.07 | 89 | 1016.5 |
| 20260901225148 | 62 | 95 | 0.0 | 0.0 | 0.00 | 0.07 | 0.07 | 90 | 1016.4 |
| 20260901224855 | 63 | 95 | 0.0 | 0.0 | 0.00 | 0.07 | 0.07 | 90 | 1016.3 |
| 20260901224109 | 63 | 95 | 0.0 | 0.0 | 0.00 | 0.07 | 0.07 | 89 | 1016.3 |
| 20260901223610 | 63 | 95 | 0.0 | 0.0 | 0.00 | 0.07 | 0.07 | 89 | 1016.3 |
| 20260901223044 | 63 | 95 | 0.0 | 0.9 | 0.00 | 0.07 | 0.07 | 88 | 1016.1 |
| 20260901222520 | 64 | 95 | 0.9 | 1.7 | 0.00 | 0.07 | 0.07 | 88 | 1016.1 |
| 20260901221948 | 64 | 95 | 1.7 | 2.6 | 0.00 | 0.07 | 0.07 | 88 | 1016.0 |
| 20260901221424 | 64 | 105 | 0.9 | 2.6 | 0.00 | 0.07 | 0.07 | 88 | 1016.0 |
| 20260901220856 | 64 | 115 | 0.9 | 2.6 | 0.00 | 0.07 | 0.07 | 87 | 1016.0 |
| 20260901220349 | 64 | 111 | 0.0 | 2.6 | 0.00 | 0.07 | 0.07 | 87 | 1015.9 |
| 20260901215823 | 65 | 128 | 0.0 | 0.9 | 0.00 | 0.07 | 0.07 | 86 | 1015.9 |
| 20260901215257 | 65 | 128 | 0.0 | 0.9 | 0.00 | 0.07 | 0.07 | 85 | 1015.9 |
| 20260901214736 | 65 | 128 | 0.0 | 0.9 | 0.00 | 0.07 | 0.07 | 85 | 1015.8 |
| 20260901214210 | 65 | 128 | 0.0 | 2.6 | 0.00 | 0.07 | 0.07 | 84 | 1015.8 |
| 20260901213647 | 65 | 128 | 0.0 | 2.6 | 0.00 | 0.07 | 0.07 | 84 | 1015.8 |
| 20260901213147 | 66 | 85 | 0.9 | 2.6 | 0.00 | 0.07 | 0.07 | 83 | 1015.7 |
| 20260901212917 | 66 | 161 | 0.0 | 2.6 | 0.00 | 0.07 | 0.07 | 83 | 1015.5 |
| 20260901212146 | 66 | 168 | 0.0 | 0.9 | 0.00 | 0.07 | 0.07 | 81 | 1015.5 |
| 20260901211646 | 67 | 168 | 0.0 | 1.7 | 0.00 | 0.07 | 0.07 | 80 | 1015.5 |
| 20260901211146 | 67 | 168 | 0.0 | 1.7 | 0.00 | 0.07 | 0.07 | 80 | 1015.4 |
| 20260901210916 | 67 | 135 | 0.9 | 2.6 | 0.00 | 0.07 | 0.07 | 80 | 1015.2 |
| 20260901210142 | 67 | 145 | 0.0 | 2.6 | 0.00 | 0.07 | 0.07 | 79 | 1015.2 |
| 20260901205636 | 68 | 172 | 0.9 | 4.3 | 0.00 | 0.07 | 0.07 | 78 | 1015.2 |
| 20260901205127 | 68 | 219 | 0.9 | 7.8 | 0.00 | 0.07 | 0.07 | 77 | 1015.1 |
| 20260901204844 | 68 | 131 | 0.9 | 7.8 | 0.00 | 0.07 | 0.07 | 77 | 1015.2 |
| 20260901204112 | 69 | 137 | 0.9 | 2.6 | 0.00 | 0.07 | 0.07 | 77 | 1015.1 |
| 20260901203842 | 69 | 128 | 1.7 | 6.1 | 0.00 | 0.07 | 0.07 | 76 | 1015.0 |
| 20260901203045 | 69 | 231 | 1.7 | 6.1 | 0.00 | 0.07 | 0.07 | 76 | 1014.9 |
| 20260901202810 | 69 | 164 | 2.6 | 6.1 | 0.00 | 0.07 | 0.07 | 76 | 1014.9 |
| 20260901202032 | 69 | 116 | 1.7 | 7.0 | 0.00 | 0.07 | 0.07 | 77 | 1014.8 |
| 20260901201802 | 69 | 109 | 1.7 | 7.0 | 0.00 | 0.07 | 0.07 | 79 | 1014.8 |
| 20260901201019 | 69 | 267 | 1.7 | 5.2 | 0.00 | 0.07 | 0.07 | 79 | 1014.6 |
| 20260901200518 | 69 | 115 | 1.7 | 5.2 | 0.00 | 0.07 | 0.07 | 77 | 1014.6 |
| 20260901200016 | 69 | 126 | 1.7 | 8.7 | 0.00 | 0.07 | 0.07 | 77 | 1014.6 |
| 20260901195514 | 69 | 261 | 2.6 | 8.7 | 0.00 | 0.07 | 0.07 | 77 | 1014.5 |
| 20260901195008 | 70 | 142 | 1.7 | 6.1 | 0.00 | 0.07 | 0.07 | 77 | 1014.3 |
| 20260901194501 | 71 | 104 | 2.6 | 7.0 | 0.00 | 0.07 | 0.07 | 76 | 1014.2 |
| 20260901193935 | 71 | 110 | 3.5 | 7.8 | 0.00 | 0.07 | 0.07 | 75 | 1014.2 |
| 20260901193406 | 71 | 137 | 3.5 | 8.7 | 0.00 | 0.07 | 0.07 | 74 | 1014.0 |
| 20260901192900 | 71 | 100 | 2.6 | 8.7 | 0.00 | 0.07 | 0.07 | 74 | 1014.0 |
| 20260901192356 | 72 | 99 | 2.6 | 7.0 | 0.00 | 0.07 | 0.07 | 74 | 1013.9 |
| 20260901191853 | 72 | 163 | 1.7 | 5.2 | 0.00 | 0.07 | 0.07 | 73 | 1014.0 |
| 20260901191353 | 72 | 68 | 1.7 | 7.0 | 0.00 | 0.07 | 0.07 | 72 | 1013.9 |
| 20260901190854 | 73 | 249 | 1.7 | 7.0 | 0.00 | 0.07 | 0.07 | 71 | 1013.8 |
| 20260901190328 | 73 | 182 | 2.6 | 7.0 | 0.00 | 0.07 | 0.07 | 69 | 1013.9 |
| 20260901185810 | 73 | 117 | 2.6 | 7.0 | 0.00 | 0.07 | 0.07 | 71 | 1013.7 |
| 20260901185538 | 73 | 276 | 1.7 | 7.0 | 0.00 | 0.07 | 0.07 | 70 | 1013.7 |
| 20260901185418 | 73 | 205 | 2.6 | 7.0 | 0.00 | 0.07 | 0.07 | 70 | 1013.6 |
| 20260901184238 | 73 | 200 | 2.6 | 7.0 | 0.00 | 0.07 | 0.07 | 70 | 1013.5 |
| 20260901183730 | 72 | 258 | 2.6 | 7.8 | 0.00 | 0.07 | 0.07 | 70 | 1013.4 |
| 20260901183203 | 72 | 177 | 3.5 | 9.6 | 0.00 | 0.07 | 0.07 | 71 | 1013.5 |
| 20260901182653 | 72 | 251 | 4.3 | 9.6 | 0.00 | 0.07 | 0.07 | 71 | 1013.5 |
| 20260901182154 | 73 | 247 | 3.5 | 9.6 | 0.00 | 0.08 | 0.07 | 70 | 1013.4 |
| 20260901181649 | 73 | 111 | 2.6 | 9.6 | 0.00 | 0.08 | 0.07 | 69 | 1013.5 |
| 20260901181123 | 74 | 282 | 1.7 | 9.6 | 0.00 | 0.08 | 0.07 | 73 | 1013.4 |
| 20260901180556 | 73 | 270 | 2.6 | 7.8 | 0.00 | 0.08 | 0.07 | 73 | 1013.4 |
| 20260901180030 | 73 | 268 | 3.5 | 7.8 | 0.00 | 0.08 | 0.07 | 72 | 1013.3 |
| 20260901175528 | 72 | 187 | 3.5 | 7.0 | 0.00 | 0.08 | 0.07 | 75 | 1013.4 |
| 20260901175024 | 72 | 217 | 3.5 | 7.8 | 0.00 | 0.08 | 0.07 | 73 | 1013.4 |
| 20260901174754 | 72 | 243 | 3.5 | 7.8 | 0.00 | 0.08 | 0.07 | 72 | 1013.6 |
| 20260901173501 | 72 | 141 | 1.7 | 7.0 | 0.00 | 0.09 | 0.07 | 75 | 1013.5 |
| 20260901173002 | 71 | 195 | 1.7 | 4.3 | 0.00 | 0.09 | 0.07 | 77 | 1013.4 |
| 20260901172441 | 71 | 193 | 1.7 | 7.0 | 0.00 | 0.09 | 0.07 | 80 | 1013.4 |
| 20260901172434 | 71 | 247 | 1.7 | 6.1 | 0.00 | 0.09 | 0.07 | 76 | 1013.4 |
| 20260901171403 | 71 | 250 | 1.7 | 7.0 | 0.00 | 0.09 | 0.07 | 79 | 1013.4 |
| 20260901170846 | 71 | 274 | 1.7 | 6.1 | 0.00 | 0.09 | 0.07 | 80 | 1013.4 |
| 20260901170321 | 71 | 289 | 1.7 | 6.1 | 0.00 | 0.09 | 0.07 | 81 | 1013.6 |
| 20260901165821 | 70 | 220 | 1.7 | 6.1 | 0.00 | 0.09 | 0.07 | 85 | 1013.6 |
| 20260901165322 | 70 | 182 | 1.7 | 6.1 | 0.00 | 0.09 | 0.07 | 83 | 1013.6 |
| 20260901165051 | 70 | 249 | 1.7 | 5.2 | 0.00 | 0.09 | 0.07 | 84 | 1013.7 |
| 20260901164549 | 69 | 260 | 2.6 | 5.2 | 0.00 | 0.09 | 0.07 | 86 | 1013.7 |
| 20260901163818 | 69 | 252 | 1.7 | 6.1 | 0.00 | 0.10 | 0.07 | 86 | 1013.7 |
| 20260901163317 | 69 | 265 | 1.7 | 6.1 | 0.00 | 0.10 | 0.07 | 89 | 1013.7 |
| 20260901162810 | 68 | 270 | 1.7 | 5.2 | 0.00 | 0.10 | 0.07 | 88 | 1013.8 |
| 20260901162308 | 68 | 297 | 0.9 | 2.6 | 0.00 | 0.10 | 0.07 | 89 | 1013.8 |
| 20260901161800 | 67 | 218 | 0.9 | 2.6 | 0.00 | 0.10 | 0.07 | 89 | 1013.8 |
| 20260901161258 | 67 | 251 | 0.9 | 3.5 | 0.00 | 0.10 | 0.07 | 90 | 1013.8 |
| 20260901160727 | 67 | 182 | 0.9 | 3.5 | 0.00 | 0.10 | 0.07 | 90 | 1013.8 |
| 20260901160209 | 66 | 252 | 0.9 | 2.6 | 0.00 | 0.10 | 0.07 | 90 | 1013.9 |
| 20260901155937 | 66 | 237 | 0.9 | 2.6 | 0.00 | 0.10 | 0.07 | 89 | 1013.9 |
| 20260901155202 | 66 | 239 | 0.9 | 2.6 | 0.00 | 0.10 | 0.07 | 90 | 1013.9 |
| 20260901154654 | 66 | 283 | 0.9 | 5.2 | 0.00 | 0.10 | 0.07 | 91 | 1013.8 |
| 20260901154125 | 66 | 245 | 1.7 | 5.2 | 0.00 | 0.10 | 0.07 | 90 | 1013.8 |
| 20260901153623 | 66 | 235 | 1.7 | 5.2 | 0.00 | 0.10 | 0.07 | 91 | 1013.8 |
| 20260901153054 | 67 | 252 | 0.9 | 5.2 | 0.00 | 0.10 | 0.07 | 90 | 1013.8 |
| 20260901152800 | 67 | 139 | 1.7 | 4.3 | 0.00 | 0.10 | 0.07 | 89 | 1013.7 |
| 20260901152013 | 67 | 211 | 2.6 | 7.8 | 0.00 | 0.10 | 0.07 | 87 | 1013.9 |
| 20260901151513 | 67 | 108 | 3.5 | 8.7 | 0.00 | 0.10 | 0.07 | 86 | 1013.9 |
| 20260901150945 | 68 | 172 | 3.5 | 8.7 | 0.00 | 0.10 | 0.07 | 87 | 1013.8 |
| 20260901150445 | 68 | 177 | 1.7 | 8.7 | 0.00 | 0.10 | 0.07 | 88 | 1013.8 |
| 20260901145944 | 67 | 91 | 1.7 | 7.0 | 0.00 | 0.10 | 0.07 | 89 | 1013.8 |
| 20260901145444 | 67 | 155 | 1.7 | 7.0 | 0.00 | 0.10 | 0.07 | 89 | 1013.7 |
| 20260901144918 | 67 | 182 | 1.7 | 7.0 | 0.00 | 0.10 | 0.07 | 89 | 1013.7 |
| 20260901144353 | 67 | 254 | 2.6 | 4.3 | 0.00 | 0.10 | 0.07 | 90 | 1013.8 |
| 20260901143850 | 67 | 235 | 0.9 | 7.8 | 0.00 | 0.10 | 0.07 | 90 | 1013.8 |
| 20260901143322 | 67 | 234 | 0.0 | 2.6 | 0.00 | 0.10 | 0.07 | 90 | 1013.7 |
| 20260901143026 | 67 | 152 | 0.0 | 3.5 | 0.00 | 0.10 | 0.07 | 90 | 1013.6 |
| 20260901142246 | 67 | 124 | 0.9 | 3.5 | 0.00 | 0.10 | 0.07 | 90 | 1013.7 |
| 20260901141723 | 67 | 172 | 1.7 | 4.3 | 0.00 | 0.10 | 0.07 | 89 | 1013.7 |
| 20260901141202 | 67 | 240 | 0.9 | 4.3 | 0.00 | 0.10 | 0.07 | 91 | 1013.8 |
| 20260901140654 | 67 | 270 | 0.9 | 3.5 | 0.00 | 0.10 | 0.07 | 92 | 1013.6 |
| 20260901140156 | 66 | 130 | 0.0 | 5.2 | 0.00 | 0.10 | 0.07 | 93 | 1013.7 |
| 20260901135628 | 66 | 274 | 0.0 | 3.5 | 0.00 | 0.10 | 0.07 | 93 | 1013.6 |
| 20260901135353 | 66 | 162 | 0.9 | 3.5 | 0.04 | 0.10 | 0.07 | 94 | 1013.6 |
| 20260901134601 | 66 | 253 | 1.7 | 3.5 | 0.05 | 0.10 | 0.07 | 93 | 1013.5 |
| 20260901134040 | 66 | 230 | 0.9 | 5.2 | 0.05 | 0.10 | 0.07 | 93 | 1013.7 |
| 20260901133529 | 66 | 242 | 0.9 | 5.2 | 0.05 | 0.10 | 0.07 | 93 | 1013.6 |
| 20260901133028 | 66 | 222 | 0.9 | 4.3 | 0.05 | 0.10 | 0.07 | 94 | 1013.5 |
| 20260901132527 | 66 | 245 | 0.0 | 3.5 | 0.05 | 0.10 | 0.07 | 96 | 1013.5 |
| 20260901132004 | 65 | 282 | 0.9 | 3.5 | 0.05 | 0.10 | 0.07 | 96 | 1013.6 |
| 20260901131443 | 65 | 285 | 0.0 | 3.5 | 0.05 | 0.10 | 0.07 | 96 | 1013.6 |
| 20260901130914 | 65 | 345 | 0.0 | 1.7 | 0.05 | 0.10 | 0.07 | 97 | 1013.5 |
| 20260901130355 | 65 | 272 | 0.0 | 1.7 | 0.05 | 0.10 | 0.07 | 97 | 1013.6 |
| 20260901125826 | 64 | 177 | 0.9 | 4.3 | 0.05 | 0.10 | 0.07 | 96 | 1013.6 |
| 20260901125323 | 64 | 114 | 0.9 | 4.3 | 0.04 | 0.09 | 0.06 | 96 | 1013.6 |
| 20260901124823 | 64 | 163 | 1.7 | 7.0 | 0.00 | 0.05 | 0.02 | 97 | 1013.5 |
| 20260901124323 | 64 | 235 | 1.7 | 7.0 | 0.00 | 0.05 | 0.02 | 98 | 1013.4 |
| 20260901123756 | 64 | 117 | 0.9 | 4.3 | 0.00 | 0.05 | 0.02 | 98 | 1013.4 |
| 20260901123235 | 64 | 246 | 0.9 | 5.2 | 0.00 | 0.05 | 0.02 | 98 | 1013.3 |
| 20260901122706 | 64 | 213 | 1.7 | 7.0 | 0.00 | 0.05 | 0.02 | 98 | 1013.3 |
| 20260901122201 | 63 | 191 | 2.6 | 7.0 | 0.00 | 0.05 | 0.02 | 98 | 1013.3 |
| 20260901121642 | 63 | 162 | 1.7 | 6.1 | 0.00 | 0.05 | 0.02 | 99 | 1013.1 |
| 20260901121114 | 63 | 202 | 1.7 | 5.2 | 0.00 | 0.05 | 0.02 | 99 | 1013.1 |
| 20260901120612 | 63 | 235 | 1.7 | 6.1 | 0.00 | 0.05 | 0.02 | 99 | 1013.1 |
| 20260901120113 | 63 | 251 | 0.9 | 6.1 | 0.00 | 0.05 | 0.02 | 98 | 1013.1 |
| 20260901115840 | 63 | 133 | 0.9 | 4.3 | 0.00 | 0.05 | 0.02 | 99 | 1013.1 |
| 20260901115340 | 63 | 245 | 0.9 | 4.3 | 0.00 | 0.05 | 0.02 | 99 | 1012.9 |
| 20260901114607 | 62 | 187 | 0.9 | 3.5 | 0.00 | 0.05 | 0.02 | 99 | 1013.0 |
| 20260901114315 | 62 | 247 | 0.0 | 2.6 | 0.01 | 0.05 | 0.02 | 99 | 1012.8 |
| 20260901113523 | 62 | 196 | 0.0 | 2.6 | 0.01 | 0.05 | 0.02 | 99 | 1012.9 |
| 20260901113254 | 62 | 213 | 0.0 | 0.0 | 0.01 | 0.05 | 0.02 | 98 | 1012.8 |
| 20260901112731 | 62 | 259 | 1.7 | 7.0 | 0.01 | 0.05 | 0.02 | 98 | 1012.9 |
| 20260901111934 | 62 | 270 | 1.7 | 4.3 | 0.01 | 0.05 | 0.02 | 98 | 1012.8 |
| 20260901111429 | 62 | 252 | 0.9 | 4.3 | 0.01 | 0.05 | 0.02 | 99 | 1012.5 |
| 20260901110906 | 62 | 224 | 0.0 | 2.6 | 0.01 | 0.05 | 0.02 | 98 | 1012.5 |
| 20260901110344 | 62 | 233 | 0.9 | 2.6 | 0.01 | 0.05 | 0.02 | 98 | 1012.4 |
| 20260901105832 | 62 | 229 | 0.9 | 3.5 | 0.01 | 0.05 | 0.02 | 98 | 1012.3 |
| 20260901105547 | 62 | 224 | 0.9 | 3.5 | 0.01 | 0.05 | 0.02 | 98 | 1012.2 |
| 20260901105432 | 62 | 255 | 1.7 | 3.5 | 0.01 | 0.05 | 0.02 | 99 | 1012.1 |
| 20260901104315 | 62 | 259 | 1.7 | 3.5 | 0.00 | 0.04 | 0.01 | 99 | 1012.0 |
| 20260901103815 | 62 | 264 | 0.9 | 3.5 | 0.00 | 0.04 | 0.01 | 99 | 1011.8 |
| 20260901103313 | 62 | 239 | 0.9 | 3.5 | 0.00 | 0.04 | 0.01 | 99 | 1011.8 |
| 20260901103037 | 62 | 284 | 0.0 | 0.9 | 0.00 | 0.04 | 0.01 | 98 | 1011.5 |
| 20260901102244 | 62 | 284 | 0.0 | 0.9 | 0.00 | 0.04 | 0.01 | 99 | 1011.4 |
| 20260901101744 | 62 | 284 | 0.0 | 0.9 | 0.00 | 0.04 | 0.01 | 99 | 1011.5 |
| 20260901101240 | 62 | 284 | 0.0 | 0.9 | 0.00 | 0.04 | 0.01 | 99 | 1011.2 |
| 20260901100725 | 62 | 284 | 0.0 | 0.9 | 0.00 | 0.04 | 0.01 | 99 | 1011.2 |
| 20260901100718 | 62 | 284 | 0.0 | 0.9 | 0.00 | 0.04 | 0.01 | 99 | 1011.2 |
| 20260901095928 | 62 | 268 | 0.0 | 0.0 | 0.00 | 0.04 | 0.01 | 98 | 1011.2 |
| 20260901095156 | 62 | 268 | 0.0 | 0.0 | 0.00 | 0.04 | 0.01 | 98 | 1011.1 |
| 20260901094648 | 62 | 268 | 0.0 | 0.9 | 0.00 | 0.04 | 0.01 | 98 | 1011.1 |
| 20260901094640 | 62 | 268 | 0.0 | 0.0 | 0.00 | 0.04 | 0.01 | 98 | 1011.1 |
| 20260901093901 | 62 | 268 | 0.0 | 0.9 | 0.00 | 0.04 | 0.01 | 98 | 1011.2 |
| 20260901093101 | 62 | 268 | 0.0 | 1.7 | 0.00 | 0.04 | 0.01 | 98 | 1011.1 |
| 20260901092533 | 62 | 279 | 0.9 | 1.7 | 0.00 | 0.04 | 0.01 | 98 | 1011.0 |
| 20260901092033 | 62 | 264 | 0.0 | 1.7 | 0.00 | 0.04 | 0.01 | 98 | 1010.9 |
| 20260901091526 | 62 | 239 | 0.0 | 1.7 | 0.00 | 0.04 | 0.01 | 98 | 1010.7 |
| 20260901091015 | 62 | 239 | 0.0 | 1.7 | 0.00 | 0.04 | 0.01 | 98 | 1010.7 |
| 20260901090451 | 62 | 261 | 0.0 | 0.9 | 0.01 | 0.04 | 0.01 | 98 | 1010.6 |
| 20260901085951 | 62 | 261 | 0.0 | 0.9 | 0.01 | 0.04 | 0.01 | 98 | 1010.5 |
| 20260901085422 | 62 | 261 | 0.0 | 0.9 | 0.01 | 0.04 | 0.01 | 98 | 1010.4 |
| 20260901085145 | 62 | 261 | 0.0 | 1.7 | 0.01 | 0.04 | 0.01 | 98 | 1010.5 |
| 20260901084415 | 62 | 207 | 0.0 | 2.6 | 0.01 | 0.04 | 0.01 | 98 | 1010.6 |
| 20260901083856 | 62 | 255 | 0.9 | 2.6 | 0.01 | 0.04 | 0.01 | 98 | 1010.4 |
| 20260901083354 | 62 | 237 | 0.9 | 2.6 | 0.01 | 0.04 | 0.01 | 98 | 1010.5 |
| 20260901082857 | 62 | 260 | 0.9 | 2.6 | 0.01 | 0.04 | 0.01 | 98 | 1010.4 |
| 20260901082356 | 62 | 257 | 0.0 | 1.7 | 0.01 | 0.04 | 0.01 | 98 | 1010.4 |
| 20260901081851 | 62 | 244 | 0.0 | 0.0 | 0.01 | 0.04 | 0.01 | 98 | 1010.4 |
| 20260901081353 | 62 | 261 | 0.0 | 0.0 | 0.01 | 0.04 | 0.01 | 98 | 1010.1 |
| 20260901081109 | 62 | 246 | 0.0 | 0.0 | 0.01 | 0.04 | 0.01 | 98 | 1010.1 |
| 20260901080324 | 62 | 270 | 0.0 | 0.0 | 0.00 | 0.03 | 0.00 | 98 | 1010.1 |
| 20260901075818 | 62 | 262 | 0.0 | 0.0 | 0.00 | 0.03 | 0.00 | 98 | 1010.1 |
| 20260901075320 | 62 | 262 | 0.0 | 0.0 | 0.00 | 0.03 | 0.00 | 98 | 1010.0 |
| 20260901074806 | 62 | 258 | 0.0 | 0.0 | 0.00 | 0.03 | 0.00 | 98 | 1009.8 |
| 20260901074636 | 62 | 256 | 0.0 | 0.0 | 0.00 | 0.03 | 0.00 | 98 | 1009.6 |
| 20260901074530 | 62 | 251 | 0.0 | 0.0 | 0.00 | 0.03 | 0.00 | 98 | 1009.4 |
| 20260901073246 | 62 | 305 | 0.0 | 0.0 | 0.00 | 0.03 | 0.00 | 98 | 1009.3 |
| 20260901072747 | 62 | 305 | 0.0 | 0.0 | 0.00 | 0.03 | 0.00 | 98 | 1009.2 |
| 20260901072245 | 62 | 305 | 0.0 | 0.0 | 0.00 | 0.03 | 0.00 | 98 | 1009.0 |
| 20260901072014 | 62 | 305 | 0.0 | 0.0 | 0.00 | 0.03 | 0.00 | 98 | 1009.0 |
| 20260901071226 | 62 | 305 | 0.0 | 0.0 | 0.00 | 0.03 | 0.00 | 98 | 1009.2 |
| 20260901070725 | 62 | 305 | 0.0 | 0.0 | 0.00 | 0.03 | 0.00 | 98 | 1009.3 |
| 20260901070219 | 62 | 305 | 0.0 | 0.0 | 0.00 | 0.03 | 0.00 | 98 | 1009.3 |
| 20260901065719 | 62 | 305 | 0.0 | 0.0 | 0.00 | 0.03 | 0.00 | 98 | 1009.5 |
| 20260901065451 | 62 | 305 | 0.0 | 0.0 | 0.00 | 0.03 | 0.00 | 98 | 1009.5 |
| 20260901064716 | 62 | 249 | 0.0 | 0.0 | 0.00 | 0.03 | 0.00 | 98 | 1009.5 |
| 20260901064212 | 62 | 249 | 0.0 | 0.0 | 0.00 | 0.03 | 0.00 | 98 | 1009.6 |
| 20260901063711 | 62 | 228 | 0.0 | 0.0 | 0.00 | 0.03 | 0.00 | 98 | 1009.6 |
| 20260901063435 | 62 | 208 | 0.0 | 0.0 | 0.00 | 0.03 | 0.00 | 98 | 1009.6 |
| 20260901062649 | 62 | 197 | 0.0 | 0.0 | 0.00 | 0.03 | 0.00 | 98 | 1009.7 |
| 20260901062354 | 62 | 197 | 0.0 | 0.0 | 0.00 | 0.03 | 0.00 | 98 | 1009.7 |
| 20260901061616 | 62 | 187 | 0.0 | 0.0 | 0.00 | 0.03 | 0.00 | 98 | 1009.7 |
| 20260901061115 | 62 | 187 | 0.0 | 0.9 | 0.00 | 0.03 | 0.00 | 98 | 1009.7 |
| 20260901060611 | 62 | 106 | 0.0 | 0.9 | 0.00 | 0.03 | 0.00 | 98 | 1009.6 |
| 20260901060046 | 62 | 99 | 0.0 | 1.7 | 0.00 | 0.03 | 0.00 | 98 | 1009.5 |
| 20260901055546 | 62 | 106 | 0.0 | 2.6 | 0.00 | 0.03 | 0.00 | 98 | 1009.7 |
| 20260901055034 | 62 | 101 | 0.0 | 2.6 | 0.00 | 0.03 | 0.00 | 98 | 1009.7 |
| 20260901055026 | 62 | 139 | 0.0 | 2.6 | 0.00 | 0.03 | 0.00 | 98 | 1009.8 |
| 20260901054007 | 62 | 143 | 0.0 | 2.6 | 0.00 | 0.03 | 0.00 | 98 | 1009.7 |
| 20260901053504 | 62 | 177 | 0.0 | 0.9 | 0.00 | 0.03 | 0.00 | 98 | 1009.8 |
| 20260901053004 | 62 | 171 | 0.0 | 0.9 | 0.00 | 0.03 | 0.00 | 98 | 1009.9 |
| 20260901052458 | 62 | 118 | 0.0 | 0.9 | 0.00 | 0.03 | 0.00 | 98 | 1010.0 |
| 20260901051957 | 62 | 112 | 0.0 | 0.0 | 0.00 | 0.03 | 0.00 | 98 | 1010.1 |
| 20260901051431 | 62 | 158 | 0.0 | 0.0 | 0.00 | 0.03 | 0.00 | 98 | 1010.1 |
| 20260901050915 | 63 | 246 | 0.0 | 0.0 | 0.00 | 0.03 | 0.00 | 98 | 1010.2 |
| 20260901050402 | 63 | 246 | 0.0 | 0.0 | 0.00 | 0.03 | 0.00 | 98 | 1010.5 |
| 20260901045848 | 63 | 246 | 0.0 | 0.0 | 0.00 | 0.03 | 0.00 | 98 | 1010.3 |
| 20260901045347 | 63 | 246 | 0.0 | 0.0 | 0.00 | 0.03 | 0.00 | 98 | 1010.3 |
| 20260901044817 | 63 | 246 | 0.0 | 0.0 | 0.00 | 0.03 | 0.00 | 98 | 1010.4 |
| 20260901044315 | 63 | 246 | 0.0 | 0.0 | 0.00 | 0.03 | 0.00 | 98 | 1010.6 |
| 20260901043816 | 63 | 246 | 0.0 | 0.0 | 0.00 | 0.03 | 0.00 | 98 | 1010.8 |
| 20260901043315 | 63 | 246 | 0.9 | 3.5 | 0.00 | 0.03 | 0.00 | 98 | 1010.8 |
| 20260901042802 | 63 | 246 | 0.9 | 3.5 | 0.00 | 0.03 | 0.00 | 98 | 1010.9 |
| 20260901042519 | 63 | 245 | 0.9 | 3.5 | 0.00 | 0.03 | 0.00 | 98 | 1011.0 |
| 20260901041749 | 63 | 258 | 0.9 | 3.5 | 0.00 | 0.03 | 0.00 | 98 | 1011.1 |
| 20260901041251 | 63 | 288 | 0.9 | 2.6 | 0.00 | 0.03 | 0.00 | 98 | 1011.0 |
| 20260901041244 | 63 | 294 | 0.9 | 2.6 | 0.00 | 0.03 | 0.00 | 98 | 1011.0 |
| 20260901040248 | 63 | 258 | 0.0 | 0.9 | 0.00 | 0.03 | 0.00 | 98 | 1011.0 |
| 20260901040241 | 63 | 288 | 0.0 | 2.6 | 0.00 | 0.03 | 0.00 | 98 | 1011.1 |
| 20260901035459 | 63 | 270 | 0.0 | 1.7 | 0.00 | 0.03 | 0.00 | 98 | 1011.0 |
| 20260901034728 | 63 | 257 | 0.0 | 1.7 | 0.00 | 0.03 | 0.00 | 98 | 1010.8 |
| 20260901034458 | 63 | 295 | 0.0 | 1.7 | 0.00 | 0.03 | 0.00 | 97 | 1010.8 |
| 20260901033716 | 63 | 267 | 0.9 | 2.6 | 0.00 | 0.03 | 0.00 | 97 | 1010.6 |
| 20260901033427 | 63 | 267 | 0.9 | 2.6 | 0.00 | 0.03 | 0.00 | 97 | 1010.5 |
| 20260901032658 | 63 | 260 | 0.9 | 3.5 | 0.00 | 0.03 | 0.00 | 97 | 1010.6 |
| 20260901032147 | 63 | 231 | 0.9 | 2.6 | 0.00 | 0.03 | 0.00 | 97 | 1010.7 |
| 20260901031643 | 63 | 296 | 0.9 | 5.2 | 0.00 | 0.03 | 0.00 | 97 | 1010.8 |
| 20260901031132 | 63 | 285 | 0.9 | 4.3 | 0.00 | 0.03 | 0.00 | 97 | 1010.9 |
| 20260901030838 | 63 | 260 | 1.7 | 5.2 | 0.00 | 0.03 | 0.00 | 97 | 1010.6 |
| 20260901030042 | 63 | 274 | 1.7 | 5.2 | 0.00 | 0.03 | 0.00 | 97 | 1010.7 |
| 20260901025536 | 63 | 271 | 0.0 | 1.7 | 0.00 | 0.03 | 0.03 | 97 | 1010.5 |
| 20260901025008 | 63 | 276 | 0.0 | 0.9 | 0.00 | 0.03 | 0.03 | 97 | 1010.1 |
| 20260901024459 | 63 | 276 | 0.0 | 0.9 | 0.00 | 0.03 | 0.03 | 97 | 1010.4 |
| 20260901023949 | 63 | 276 | 0.0 | 1.7 | 0.00 | 0.03 | 0.03 | 97 | 1010.2 |
| 20260901023436 | 63 | 276 | 0.0 | 0.9 | 0.00 | 0.03 | 0.03 | 97 | 1010.2 |
| 20260901022910 | 63 | 187 | 0.0 | 3.5 | 0.00 | 0.03 | 0.03 | 97 | 1010.0 |
| 20260901022408 | 63 | 213 | 0.9 | 3.5 | 0.00 | 0.03 | 0.03 | 97 | 1009.7 |
| 20260901021857 | 63 | 221 | 0.9 | 3.5 | 0.00 | 0.03 | 0.03 | 97 | 1009.7 |
| 20260901021355 | 63 | 210 | 0.9 | 2.6 | 0.00 | 0.03 | 0.03 | 97 | 1009.5 |
| 20260901020853 | 64 | 68 | 0.9 | 2.6 | 0.00 | 0.03 | 0.03 | 97 | 1009.8 |
| 20260901020350 | 63 | 208 | 0.9 | 2.6 | 0.00 | 0.03 | 0.03 | 97 | 1009.5 |
| 20260901015820 | 64 | 124 | 0.9 | 2.6 | 0.00 | 0.03 | 0.03 | 97 | 1009.9 |
| 20260901015310 | 64 | 177 | 0.0 | 1.7 | 0.00 | 0.03 | 0.03 | 97 | 1010.0 |
| 20260901014745 | 64 | 105 | 0.0 | 0.0 | 0.00 | 0.03 | 0.03 | 97 | 1010.6 |
| 20260901014243 | 64 | 227 | 0.0 | 0.0 | 0.00 | 0.03 | 0.03 | 97 | 1010.9 |
| 20260901013713 | 64 | 229 | 0.0 | 0.0 | 0.00 | 0.03 | 0.03 | 97 | 1010.9 |
| 20260901013421 | 64 | 216 | 0.0 | 0.0 | 0.00 | 0.03 | 0.03 | 97 | 1011.1 |
| 20260901013143 | 64 | 197 | 0.0 | 0.0 | 0.00 | 0.03 | 0.03 | 97 | 1011.1 |
| 20260901012137 | 64 | 268 | 0.0 | 0.0 | 0.00 | 0.03 | 0.03 | 97 | 1011.3 |
| 20260901011636 | 64 | 251 | 0.0 | 0.0 | 0.00 | 0.03 | 0.03 | 98 | 1011.1 |
| 20260901011109 | 64 | 182 | 0.0 | 0.0 | 0.00 | 0.03 | 0.03 | 98 | 1010.9 |
| 20260901010558 | 64 | 244 | 0.0 | 0.0 | 0.00 | 0.03 | 0.03 | 98 | 1011.2 |
| 20260901010046 | 64 | 245 | 0.0 | 0.0 | 0.00 | 0.03 | 0.03 | 98 | 1011.0 |
| 20260901005548 | 64 | 266 | 0.9 | 1.7 | 0.00 | 0.03 | 0.03 | 98 | 1011.2 |
| 20260901005019 | 64 | 246 | 0.9 | 3.5 | 0.00 | 0.03 | 0.03 | 98 | 1011.1 |
| 20260901004515 | 64 | 275 | 0.0 | 2.6 | 0.00 | 0.03 | 0.03 | 98 | 1011.1 |
| 20260901004012 | 64 | 271 | 0.0 | 1.7 | 0.00 | 0.03 | 0.03 | 98 | 1011.0 |
| 20260901003444 | 64 | 271 | 0.0 | 1.7 | 0.00 | 0.03 | 0.03 | 98 | 1010.9 |